Weather History for Syracuse, NY

Change the Weather History Date:

Tuesday, May 22, 2012

  Actual Average Record
Temperature  
Mean Temperature 71 °F 59 °F  
Max Temperature 79 °F 71 °F 92 °F (1911)
Min Temperature 62 °F 48 °F 35 °F (1967)
Degree Days  
Heating Degree Days 0 7  
Month to date heating degree days 100 206  
Since 1 July heating degree days 5108 6541  
Cooling Degree Days 6 1  
Month to date cooling degree days 21 12  
Year to date cooling degree days 28 16  
Growing Degree Days 21 (Base 50)    
Moisture  
Dew Point 62 °F    
Average Humidity 76    
Maximum Humidity 100    
Minimum Humidity 52    
Precipitation  
Precipitation 0.00 in 0.12 in 1.01 in (1944)
Month to date precipitation 2.65 2.25  
Year to date precipitation 12.14 12.96  
Snow  
Snow 0.00 in 0.00 in 0.00 in (2002)
Month to date snowfall 0.0 0.1  
Since 1 July snowfall 50.6 123.8  
Snow Depth 0.00 in    
Sea Level Pressure  
Sea Level Pressure 29.87 in    
Wind  
Wind Speed 4 mph (East)    
Max Wind Speed 15 mph    
Max Gust Speed 20 mph    
Visibility 10 miles    
Events      
T = Trace of Precipitation, MM = Missing Value Source: NWS Daily Summary

Daily Weather History Graph

Daily Weather History Graph

Search for Another Location

Airport:

Trip Planner

Search our weather history database for the weather conditions in past years. The results will help you decide how hot, cold, wet, or windy it might be!

Date:

Astronomy

May. 22, 2012 Rise Set
Actual Time 5:33 AM EDT 8:28 PM EDT
Civil Twilight 5:00 AM EDT 9:02 PM EDT
Nautical Twilight 4:17 AM EDT 9:45 PM EDT
Astronomical Twilight 3:27 AM EDT 10:35 PM EDT
Moon 6:41 AM EDT (5/22) 10:05 PM EDT (5/22)
Length of Visible Light 16h 02m
Length of Day
14h 54m
Waxing Crescent, 3% of the Moon is Illuminated
May 22
Waxing Crescent
May 28
First Quarter
Jun 4
Full
Jun 11
Last Quarter
Jun 19
New

Hourly Weather History & Observations

Time (EDT) Temp. Dew Point Humidity Pressure Visibility Wind Dir Wind Speed Gust Speed Precip Events Conditions
12:54 AM 64.9 °F 60.1 °F 84% 29.94 in 10.0 mi SE 4.6 mph - N/A   Overcast
1:54 AM 64.9 °F 60.1 °F 84% 29.92 in 10.0 mi SSE 5.8 mph - N/A   Overcast
2:54 AM 64.0 °F 61.0 °F 90% 29.91 in 10.0 mi ESE 4.6 mph - N/A   Overcast
3:54 AM 63.0 °F 61.0 °F 93% 29.91 in 10.0 mi ENE 3.5 mph - N/A   Overcast
4:54 AM 63.0 °F 62.1 °F 97% 29.90 in 10.0 mi ESE 4.6 mph - N/A   Overcast
5:54 AM 63.0 °F 62.1 °F 97% 29.90 in 10.0 mi ESE 4.6 mph - N/A   Overcast
6:54 AM 63.0 °F 62.1 °F 97% 29.90 in 10.0 mi ESE 4.6 mph - N/A   Overcast
7:54 AM 64.9 °F 62.1 °F 90% 29.91 in 10.0 mi Calm Calm - N/A   Overcast
8:02 AM 66.2 °F 62.6 °F 88% 29.92 in 10.0 mi Calm Calm - N/A   Overcast
8:40 AM 68.0 °F 62.6 °F 83% 29.92 in 10.0 mi East 4.6 mph - N/A   Overcast
8:54 AM 68.0 °F 61.0 °F 78% 29.90 in 10.0 mi SE 4.6 mph - N/A   Overcast
9:54 AM 69.1 °F 62.1 °F 78% 29.90 in 10.0 mi ESE 5.8 mph - N/A   Mostly Cloudy
10:54 AM 70.0 °F 62.1 °F 76% 29.89 in 10.0 mi ESE 3.5 mph - N/A   Overcast
11:54 AM 73.0 °F 62.1 °F 68% 29.88 in 10.0 mi Variable 3.5 mph - N/A   Overcast
12:54 PM 72.0 °F 63.0 °F 73% 29.86 in 10.0 mi East 6.9 mph - N/A   Overcast
1:54 PM 73.0 °F 61.0 °F 66% 29.84 in 10.0 mi East 6.9 mph - N/A   Mostly Cloudy
2:54 PM 75.0 °F 61.0 °F 62% 29.82 in 10.0 mi East 5.8 mph - N/A   Mostly Cloudy
3:54 PM 77.0 °F 60.1 °F 56% 29.81 in 10.0 mi ESE 3.5 mph - N/A   Mostly Cloudy
4:54 PM 78.1 °F 59.0 °F 52% 29.79 in 10.0 mi Calm Calm - N/A   Mostly Cloudy
5:54 PM 75.9 °F 60.1 °F 58% 29.79 in 10.0 mi NNE 4.6 mph - N/A   Mostly Cloudy
6:54 PM 73.9 °F 62.1 °F 66% 29.81 in 10.0 mi North 9.2 mph - N/A   Overcast
7:54 PM 69.1 °F 62.1 °F 78% 29.82 in 10.0 mi ENE 5.8 mph - N/A   Mostly Cloudy
8:54 PM 66.0 °F 62.1 °F 87% 29.84 in 10.0 mi SE 4.6 mph - N/A   Mostly Cloudy
9:54 PM 64.9 °F 62.1 °F 90% 29.85 in 10.0 mi Calm Calm - N/A   Mostly Cloudy
10:54 PM 64.9 °F 63.0 °F 93% 29.86 in 10.0 mi Calm Calm - N/A   Overcast
11:26 PM 64.4 °F 62.6 °F 94% 29.87 in 10.0 mi Calm Calm - N/A   Mostly Cloudy
11:54 PM 64.0 °F 61.0 °F 90% 29.86 in 10.0 mi NW 4.6 mph - N/A   Overcast